Columbia Airport, CA

9:14 AM PDT on October 21, 2019 (GMT -0700)
Columbia Airport

Weather History for KO22 - September, 2019

Change the Weather History Date:

Thursday, September 19, 2019

  Actual Average (KMOD) Record (KMOD)
Temperature  
Mean Temperature 62 °F -  
Max Temperature 75 °F 85 °F 102 °F (1939)
Min Temperature 48 °F 56 °F 44 °F (1965)
Degree Days  
Heating Degree Days 4    
Growing Degree Days 12 (Base 50)    
Moisture  
Dew Point 47 °F    
Average Humidity 65    
Maximum Humidity 100    
Minimum Humidity 31    
Precipitation  
Precipitation 0.00 in - - ()
Sea Level Pressure  
Sea Level Pressure 29.94 in    
Wind  
Wind Speed 2 mph (SW)    
Max Wind Speed 10 mph    
Max Gust Speed 15 mph    
Visibility 10 miles    
Events      
Averages and records for this station are not official NWS values.
T = Trace of Precipitation, MM = Missing Value Source: NWS Daily Summary

Daily Weather History Graph

Daily Weather History Graph

Search for Another Location

Airport or City:

Astronomy

Sep. 19, 2019 Rise Set
Actual Time 6:46 AM PDT 7:03 PM PDT
Civil Twilight 6:20 AM PDT 7:29 PM PDT
Nautical Twilight 5:49 AM PDT 8:00 PM PDT
Astronomical Twilight 5:18 AM PDT 8:31 PM PDT
Moon 10:20 PM PDT (9/19) 11:50 AM PDT (9/19)
Length of Visible Light 13h 09m
Length of Day
12h 16m
Waning Gibbous, 73% of the Moon is Illuminated
Sep 19
Waning Gibbous
Sep 21
Last Quarter
Sep 28
New
Oct 5
First Quarter
Oct 13
Full

Hourly Weather History & Observations

Time (PDT) Temp. Dew Point Humidity Pressure Visibility Wind Dir Wind Speed Gust Speed Precip Events Conditions
12:15 AM 55.4 °F 53.6 °F 94% 29.95 in 10.0 mi Calm Calm - N/A   Partly Cloudy
12:35 AM 53.6 °F 51.8 °F 94% 29.94 in 10.0 mi Calm Calm - N/A   Clear
12:55 AM 53.6 °F 51.8 °F 94% 29.94 in 10.0 mi Variable 3.5 mph - N/A   Clear
1:35 AM 53.6 °F 51.8 °F 94% 29.94 in 10.0 mi Calm Calm - N/A   Partly Cloudy
1:55 AM 51.8 °F 51.8 °F 100% 29.94 in 10.0 mi Calm Calm - N/A   Partly Cloudy
2:15 AM 51.8 °F 50.0 °F 94% 29.93 in 10.0 mi Calm Calm - N/A   Partly Cloudy
2:35 AM 51.8 °F 50.0 °F 94% 29.93 in 10.0 mi Calm Calm - N/A   Clear
2:55 AM 51.8 °F 50.0 °F 94% 29.93 in 10.0 mi Calm Calm - N/A   Clear
3:15 AM 51.8 °F 50.0 °F 94% 29.93 in 10.0 mi Calm Calm - N/A   Clear
3:35 AM 50.0 °F 50.0 °F 100% 29.93 in 10.0 mi Calm Calm - N/A   Clear
3:55 AM 50.0 °F 50.0 °F 100% 29.92 in 10.0 mi Calm Calm - N/A   Clear
4:15 AM 50.0 °F 50.0 °F 100% 29.92 in 10.0 mi Calm Calm - N/A   Clear
4:35 AM 50.0 °F 50.0 °F 100% 29.92 in 10.0 mi Calm Calm - N/A   Clear
4:55 AM 50.0 °F 50.0 °F 100% 29.92 in 10.0 mi Calm Calm - N/A   Clear
5:15 AM 50.0 °F 48.2 °F 94% 29.92 in 10.0 mi Calm Calm - N/A   Partly Cloudy
5:35 AM 48.2 °F 48.2 °F 100% 29.92 in 10.0 mi North - - N/A   Partly Cloudy
5:55 AM 48.2 °F 48.2 °F 100% 29.92 in 10.0 mi Calm Calm - N/A   Clear
6:15 AM 50.0 °F 48.2 °F 94% 29.93 in 10.0 mi North - - N/A   Clear
7:15 AM 48.2 °F 48.2 °F 100% 29.94 in 10.0 mi Calm Calm - N/A   Clear
7:35 AM 48.2 °F 48.2 °F 100% 29.95 in 10.0 mi Calm Calm - N/A   Clear
7:55 AM 50.0 °F 50.0 °F 100% 29.95 in 10.0 mi Calm Calm - N/A   Clear
8:15 AM 53.6 °F 51.8 °F 94% 29.95 in 10.0 mi Calm Calm - N/A   Clear
8:35 AM 55.4 °F 51.8 °F 88% 29.95 in 10.0 mi Calm Calm - N/A   Clear
8:55 AM 59.0 °F 51.8 °F 77% 29.96 in 10.0 mi Calm Calm - N/A   Clear
9:15 AM 60.8 °F 51.8 °F 72% 29.96 in 10.0 mi Calm Calm - N/A   Clear
9:35 AM 62.6 °F 50.0 °F 63% 29.96 in 10.0 mi Variable 3.5 mph - N/A   Clear
9:55 AM 64.4 °F 50.0 °F 59% 29.96 in 10.0 mi Variable 5.8 mph - N/A   Clear
10:15 AM 66.2 °F 50.0 °F 56% 29.96 in 10.0 mi Variable 4.6 mph - N/A   Clear
10:35 AM 66.2 °F 50.0 °F 56% 29.96 in 10.0 mi Calm Calm - N/A   Clear
10:55 AM 68.0 °F 50.0 °F 52% 29.96 in 10.0 mi Variable 5.8 mph - N/A   Clear
11:15 AM 68.0 °F 48.2 °F 49% 29.96 in 10.0 mi Variable 5.8 mph - N/A   Clear
11:35 AM 69.8 °F 48.2 °F 46% 29.96 in 10.0 mi Variable 5.8 mph - N/A   Clear
11:55 AM 69.8 °F 48.2 °F 46% 29.97 in 10.0 mi Variable 6.9 mph - N/A   Clear
12:15 PM 69.8 °F 46.4 °F 43% 29.96 in 10.0 mi WSW 9.2 mph - N/A   Clear
12:35 PM 71.6 °F 46.4 °F 41% 29.96 in 10.0 mi Variable 6.9 mph - N/A   Clear
12:55 PM 71.6 °F 46.4 °F 41% 29.96 in 10.0 mi Variable 4.6 mph 12.7 mph N/A   Clear
1:15 PM 73.4 °F 46.4 °F 38% 29.95 in 10.0 mi Variable 5.8 mph 12.7 mph N/A   Clear
1:35 PM 71.6 °F 46.4 °F 41% 29.95 in 10.0 mi Variable 6.9 mph 13.8 mph N/A   Clear
1:55 PM 73.4 °F 44.6 °F 36% 29.95 in 10.0 mi Variable 6.9 mph - N/A   Clear
2:15 PM 73.4 °F 44.6 °F 36% 29.94 in 10.0 mi Variable 6.9 mph 12.7 mph N/A   Clear
2:35 PM 75.2 °F 44.6 °F 34% 29.94 in 10.0 mi Variable 6.9 mph - N/A   Clear
2:55 PM 75.2 °F 44.6 °F 34% 29.94 in 10.0 mi Variable 9.2 mph 15.0 mph N/A   Clear
3:15 PM 73.4 °F 44.6 °F 36% 29.93 in 10.0 mi Variable 5.8 mph - N/A   Clear
3:35 PM 75.2 °F 42.8 °F 31% 29.93 in 10.0 mi Variable 4.6 mph 12.7 mph N/A   Clear
3:55 PM 73.4 °F 42.8 °F 33% 29.93 in 10.0 mi Variable 6.9 mph 13.8 mph N/A   Clear
4:15 PM 73.4 °F 42.8 °F 33% 29.93 in 10.0 mi Variable 6.9 mph 15.0 mph N/A   Clear
4:35 PM 73.4 °F 41.0 °F 31% 29.93 in 10.0 mi Variable 10.4 mph - N/A   Clear
4:55 PM 71.6 °F 42.8 °F 35% 29.93 in 10.0 mi Variable 6.9 mph 13.8 mph N/A   Clear
5:15 PM 71.6 °F 42.8 °F 35% 29.93 in 10.0 mi Variable 6.9 mph 12.7 mph N/A   Clear
5:35 PM 71.6 °F 42.8 °F 35% 29.93 in 10.0 mi Variable 5.8 mph 12.7 mph N/A   Clear
5:55 PM 69.8 °F 41.0 °F 35% 29.93 in 10.0 mi Variable 5.8 mph - N/A   Clear
6:15 PM 69.8 °F 42.8 °F 38% 29.93 in 10.0 mi Variable 4.6 mph - N/A   Clear
6:35 PM 68.0 °F 41.0 °F 37% 29.93 in 10.0 mi Variable 6.9 mph 13.8 mph N/A   Clear
6:55 PM 66.2 °F 41.0 °F 40% 29.93 in 10.0 mi Variable 6.9 mph - N/A   Clear
7:15 PM 66.2 °F 41.0 °F 40% 29.93 in 10.0 mi Variable 5.8 mph - N/A   Clear
7:35 PM 64.4 °F 41.0 °F 42% 29.93 in 10.0 mi Calm Calm - N/A   Clear
7:55 PM 60.8 °F 41.0 °F 48% 29.93 in 10.0 mi SW 4.6 mph - N/A   Clear
8:15 PM 60.8 °F 42.8 °F 52% 29.93 in 10.0 mi Calm Calm - N/A   Clear
8:35 PM 59.0 °F 42.8 °F 55% 29.93 in 10.0 mi Calm Calm - N/A   Clear
8:55 PM 59.0 °F 42.8 °F 55% 29.93 in 10.0 mi Calm Calm - N/A   Clear
9:15 PM 57.2 °F 44.6 °F 63% 29.93 in 10.0 mi Calm Calm - N/A   Clear
9:35 PM 57.2 °F 44.6 °F 63% 29.93 in 10.0 mi Calm Calm - N/A   Clear
9:55 PM 57.2 °F 44.6 °F 63% 29.93 in 10.0 mi Calm Calm - N/A   Clear
10:15 PM 55.4 °F 44.6 °F 67% 29.93 in 10.0 mi Calm Calm - N/A   Clear
10:35 PM 53.6 °F 44.6 °F 72% 29.93 in 10.0 mi Calm Calm - N/A   Clear
10:55 PM 53.6 °F 44.6 °F 72% 29.93 in 10.0 mi Calm Calm - N/A   Clear
11:15 PM 53.6 °F 44.6 °F 72% 29.93 in 10.0 mi Calm Calm - N/A   Clear
11:35 PM 53.6 °F 44.6 °F 72% 29.93 in 10.0 mi Calm Calm - N/A   Clear
11:55 PM 53.6 °F 44.6 °F 72% 29.93 in 10.0 mi Calm Calm - N/A   Clear